Location: Alsip
(41.6689°N, 87.7387°W)
Time: 14:18:14
(UTC+00:00)

GEOS 3 Rocket - Pass Details

Date: 14 July 2020
Orbit: 771 x 848 km, 115.0° (Epoch: 04 August)

Event Time Altitude Azimuth Distance (km) Brightness Sun altitude
Rises 03:46:21 0° 36° (NE) 3,413 7.1 -19.9°
Reaches altitude 10° 03:48:41 10° 37° (NE) 2,477 6.4 -20.1°
Maximum altitude 03:54:07 84° 125° (SE) 857 3.6 -20.6°
Enters shadow 03:58:53 14° 214° (SW) 2,213 5.6 -21.1°
